Location: Unspecified
(0.0000°N, 0.0000°E)
Time: 12:27:34
(UTC+00:00)

ISS - Visible Passes

Search period start: 04 March 2026 00:00
Search period end: 14 March 2026 00:00
Orbit: 416 x 427 km, 51.6° (Epoch: 4 March)

Date Brightness Start Highest point End Pass type
(mag) Time Alt. Az. Time Alt. Az. Time Alt. Az.
4 Mar -3.2 19:11:06 10° SSW 19:14:20 39° SE 19:14:57 35° E visible
5 Mar -0.9 20:02:07 10° W 20:04:04 15° NW 20:04:08 15° NW visible
6 Mar -1.9 19:14:06 10° WSW 19:17:09 30° NW 19:20:11 10° N visible
9 Mar -1.7 05:16:51 10° N 05:19:45 28° NE 05:22:39 10° ESE visible
9 Mar -0.7 18:31:10 10° W 18:32:57 14° NW 18:34:43 10° NNW visible
10 Mar -0.8 04:31:07 10° NNE 04:32:46 13° NE 04:34:25 10° E visible
11 Mar -3.4 05:20:18 18° WNW 05:22:24 42° SW 05:25:35 10° SSE visible
12 Mar -2.6 04:36:23 41° SE 04:36:23 41° SE 04:38:42 10° SE visible
